Regional Weather Roundup
Issued by NWS

Home | Current Version | Previous Version | Graphics & Text | Print | Product List | Glossary On
Versions: 1 2 3 4 5 6 7 8 9 10 11 12 13 14 15 16 17 18 19 20 21 22 23 24 25 26 27
000
ASUS45 KSLC 180010
RWRUT

UTAH REGIONAL WEATHER ROUNDUP
NATIONAL WEATHER SERVICE SALT LAKE CITY UT
500 PM MST TUE JAN 17 2017

UTZ001>011-023>025-180100-

NORTHERN UTAH

CITY           SKY/WX    TMP DP  RH WIND       PRES   REMARKS
BRIGHAM CITY     N/A     22  14  72 NW5       30.25S WCI  15
HILL AFB       CLEAR     24  14  66 NW5       30.21S WCI  18
LOGAN          CLEAR     11   4  73 N3        30.25F
OGDEN          CLEAR     22  15  75 NW3       30.22F
SALT LAKE CITY PTCLDY    29  20  69 NW7       30.23F HAZE    WCI  22
TOOELE VALLEY  CLEAR     27  23  86 N3        30.24S
WENDOVER       CLOUDY    25  18  74 S3        30.24F
HEBER CITY     CLEAR     14   5  67 CALM      30.18S
WEST JORDAN    CLEAR     28  26  89 NW5       30.22S WCI  23

$$

UTZ011>015-024>027-180100-

CENTRAL/NORTHEAST UTAH

CITY           SKY/WX    TMP DP  RH WIND       PRES   REMARKS
PROVO AIRPORT  CLEAR     27  19  74 VRB6      30.24F WCI  20
MOAB/CANYONLAN CLEAR     40  24  53 NW3       30.15F
DELTA          CLEAR     30  23  74 CALM      30.20F
PRICE          CLEAR     28  13  53 CALM      30.16S
ROOSEVELT      CLOUDY    21  16  79 CALM      30.29S
VERNAL         CLOUDY    19  13  77 CALM      30.26S

$$

UTZ013>016-019>022-027-180100-

SOUTHERN UTAH

CITY           SKY/WX    TMP DP  RH WIND       PRES   REMARKS
BRYCE CANYON   CLEAR     21  11  65 S6        30.13F WCI  13
CEDAR CITY     CLEAR     35  19  52 NW5       30.13F WCI  31
MILFORD        CLEAR     33  22  63 N8        30.17F WCI  26
ST GEORGE      CLEAR     48  25  40 CALM      30.15S
HANKSVILLE     CLEAR     41  21  45 MISG      30.19F
BLANDING       MOCLDY    40  32  71 S6        30.21S

$$

REGIONAL REPORTS     COLORADO/ARIZONA

CITY           SKY/WX    TMP DP  RH WIND       PRES   REMARKS
CRAIG, CO      CLOUDY    16  12  84 NE5       30.21S WCI   9
GRAND JUNCTION CLOUDY    43  28  55 W7        30.15F
RIFLE, CO      CLEAR     39  26  59 SE3       30.16R
MONTROSE, CO   CLOUDY    40  29  64 CALM      30.17S
CORTEZ, CO     CLOUDY    42  34  73 MISG      30.13R
COLORADO CITY    N/A     46  28  49 NW6       30.15S
PAGE, AZ       CLEAR     47  22  37 NE3       30.14S
GRAND CANYON   CLEAR     39  27  62 NE12      30.14R WCI  32
KINGMAN, AZ    CLEAR     52  18  26 MISG      30.09S
FLAGSTAFF, AZ  CLOUDY    37  27  67 CALM      30.12R

$$

REGIONAL REPORTS    NEVADA/IDAHO/WYOMING

CITY           SKY/WX    TMP DP  RH WIND       PRES   REMARKS
LAS VEGAS, NV  CLEAR     56  14  19 CALM      30.12R
ELY, NY        CLEAR     34  13  41 CALM      30.13S
ELKO, NV       CLEAR     19   9  65 N3        30.18S
POCATELLO, ID  CLOUDY    15   7  70 NE7       30.22S WCI   5
BURLEY, ID     CLEAR     20  11  68 NE12      30.15F WCI   8
FORT BRIDGER,    N/A     -1  -6  82 CALM      30.16R
EVANSTON, WY   CLOUDY    20   8  60 E3        30.13R
ROCK SPRINGS,  CLOUDY     6   0  76 CALM      30.14S

$$




USA.gov is the U.S. government's official web portal to all federal, state and local government web resources and services.